| time (UTC) | temp C | wind direction | speed KPH | gust KPH | rain 1hr cm | rain 24hr cm | rain mn cm | humidity % | barometer mb |
| 20260508125922 | 10 | 327 | 1.6 | 4.8 | 0.00 | 0.20 | 0.20 | 80 | 1013.7 |
| 20260508125418 | 10 | 342 | 3.2 | 4.8 | 0.00 | 0.20 | 0.20 | 80 | 1013.6 |
| 20260508124916 | 10 | 268 | 1.6 | 4.8 | 0.00 | 0.20 | 0.20 | 81 | 1013.6 |
| 20260508124413 | 10 | 20 | 4.8 | 8.0 | 0.00 | 0.20 | 0.20 | 81 | 1013.6 |
| 20260508123911 | 10 | 221 | 1.6 | 4.8 | 0.00 | 0.20 | 0.20 | 82 | 1013.5 |
| 20260508123410 | 10 | 340 | 1.6 | 8.0 | 0.00 | 0.20 | 0.20 | 83 | 1013.6 |
| 20260508122905 | 10 | 263 | 0.0 | 1.6 | 0.00 | 0.20 | 0.20 | 83 | 1013.6 |
| 20260508122403 | 9 | 215 | 3.2 | 4.8 | 0.00 | 0.20 | 0.20 | 83 | 1013.6 |
| 20260508121900 | 9 | 265 | 3.2 | 8.0 | 0.00 | 0.20 | 0.20 | 85 | 1013.4 |
| 20260508121358 | 8 | 255 | 1.6 | 11.3 | 0.00 | 0.20 | 0.20 | 85 | 1013.5 |
| 20260508120855 | 8 | 205 | 1.6 | 4.8 | 0.00 | 0.20 | 0.20 | 88 | 1013.4 |
| 20260508120353 | 8 | 113 | 4.8 | 4.8 | 0.00 | 0.20 | 0.20 | 88 | 1013.3 |
| 20260508115850 | 7 | 262 | 1.6 | 1.6 | 0.00 | 0.20 | 0.20 | 91 | 1013.0 |
| 20260508115347 | 7 | 269 | 1.6 | 3.2 | 0.00 | 0.20 | 0.20 | 95 | 1013.1 |
| 20260508114844 | 7 | 272 | 0.0 | 3.2 | 0.00 | 0.20 | 0.20 | 98 | 1013.2 |
| 20260508114341 | 7 | 271 | 0.0 | 1.6 | 0.00 | 0.20 | 0.20 | 99 | 1013.2 |
| 20260508113838 | 7 | 258 | 1.6 | 1.6 | 0.00 | 0.20 | 0.20 | 99 | 1013.0 |
| 20260508113336 | 7 | 236 | 1.6 | 3.2 | 0.00 | 0.20 | 0.20 | 99 | 1012.9 |
| 20260508112832 | 6 | 285 | 0.0 | 0.0 | 0.00 | 0.20 | 0.20 | 99 | 1013.0 |
| 20260508112329 | 6 | 280 | 0.0 | 0.0 | 0.00 | 0.20 | 0.20 | 99 | 1013.2 |
| 20260508111826 | 6 | 268 | 0.0 | 0.0 | 0.00 | 0.20 | 0.20 | 99 | 1013.0 |
| 20260508111323 | 6 | 265 | 0.0 | 1.6 | 0.00 | 0.20 | 0.20 | 99 | 1013.0 |
| 20260508110820 | 6 | 261 | 0.0 | 1.6 | 0.00 | 0.20 | 0.20 | 99 | 1013.0 |
| 20260508110318 | 6 | 278 | 0.0 | 1.6 | 0.00 | 0.20 | 0.20 | 99 | 1012.9 |
| 20260508105817 | 6 | 279 | 0.0 | 0.0 | 0.00 | 0.20 | 0.20 | 99 | 1012.8 |
| 20260508105314 | 6 | 279 | 0.0 | 0.0 | 0.00 | 0.20 | 0.20 | 99 | 1012.9 |
| 20260508104811 | 6 | 282 | 0.0 | 0.0 | 0.00 | 0.20 | 0.20 | 99 | 1012.8 |
| 20260508104308 | 7 | 283 | 0.0 | 0.0 | 0.00 | 0.20 | 0.20 | 99 | 1012.8 |
| 20260508103805 | 7 | 262 | 0.0 | 1.6 | 0.13 | 0.20 | 0.20 | 98 | 1012.6 |
| 20260508103302 | 7 | 258 | 0.0 | 1.6 | 0.13 | 0.20 | 0.20 | 98 | 1012.5 |
| 20260508102800 | 7 | 275 | 0.0 | 1.6 | 0.00 | 0.18 | 0.18 | 97 | 1012.8 |
| 20260508102257 | 7 | 238 | 1.6 | 3.2 | 0.00 | 0.18 | 0.18 | 96 | 1012.9 |
| 20260508101755 | 7 | 253 | 1.6 | 3.2 | 0.18 | 0.18 | 0.18 | 95 | 1012.9 |
| 20260508101252 | 7 | 206 | 3.2 | 3.2 | 0.30 | 0.18 | 0.18 | 93 | 1012.8 |
| 20260508100749 | 7 | 192 | 3.2 | 8.0 | 0.30 | 0.15 | 0.15 | 92 | 1013.7 |
| 20260508100248 | 7 | 308 | 6.4 | 8.0 | 0.36 | 0.13 | 0.13 | 93 | 1013.4 |
| 20260508095743 | 8 | 261 | 1.6 | 4.8 | 0.18 | 0.10 | 0.10 | 92 | 1013.5 |
| 20260508095241 | 8 | 246 | 1.6 | 4.8 | 0.00 | 0.08 | 0.08 | 89 | 1013.3 |
| 20260508094738 | 8 | 260 | 3.2 | 3.2 | 0.00 | 0.08 | 0.08 | 88 | 1012.8 |
| 20260508094235 | 8 | 260 | 1.6 | 3.2 | 0.13 | 0.08 | 0.08 | 86 | 1012.5 |
| 20260508093732 | 8 | 162 | 8.0 | 11.3 | 0.13 | 0.08 | 0.08 | 89 | 1012.7 |
| 20260508093229 | 8 | 270 | 3.2 | 3.2 | 0.00 | 0.05 | 0.05 | 89 | 1013.0 |
| 20260508092726 | 8 | 292 | 1.6 | 3.2 | 0.00 | 0.05 | 0.05 | 87 | 1013.1 |
| 20260508092224 | 8 | 285 | 0.0 | 3.2 | 0.00 | 0.05 | 0.05 | 88 | 1012.9 |
| 20260508091722 | 8 | 274 | 0.0 | 1.6 | 0.00 | 0.05 | 0.05 | 89 | 1012.8 |
| 20260508091219 | 8 | 284 | 0.0 | 1.6 | 0.00 | 0.05 | 0.05 | 89 | 1012.9 |
| 20260508090717 | 7 | 269 | 0.0 | 3.2 | 0.00 | 0.05 | 0.05 | 90 | 1012.9 |
| 20260508090214 | 8 | 260 | 1.6 | 1.6 | 0.00 | 0.05 | 0.05 | 90 | 1012.9 |
| 20260508085710 | 8 | 238 | 1.6 | 3.2 | 0.18 | 0.05 | 0.05 | 88 | 1013.0 |
| 20260508085207 | 8 | 294 | 0.0 | 1.6 | 0.18 | 0.05 | 0.05 | 87 | 1012.9 |
| 20260508084703 | 8 | 331 | 1.6 | 8.0 | 0.00 | 0.03 | 0.03 | 86 | 1013.0 |
| 20260508084201 | 8 | 266 | 1.6 | 8.0 | 0.00 | 0.03 | 0.03 | 87 | 1012.8 |
| 20260508083658 | 7 | 267 | 1.6 | 3.2 | 0.00 | 0.03 | 0.03 | 88 | 1013.0 |
| 20260508083155 | 7 | 296 | 1.6 | 12.9 | 0.00 | 0.03 | 0.03 | 88 | 1013.0 |
| 20260508082650 | 7 | 275 | 1.6 | 3.2 | 0.00 | 0.03 | 0.03 | 89 | 1013.1 |
| 20260508082148 | 7 | 261 | 1.6 | 8.0 | 0.00 | 0.03 | 0.03 | 90 | 1013.3 |
| 20260508081645 | 7 | 275 | 0.0 | 3.2 | 0.00 | 0.03 | 0.03 | 91 | 1013.3 |
| 20260508081142 | 7 | 241 | 1.6 | 3.2 | 0.00 | 0.03 | 0.03 | 91 | 1013.1 |
| 20260508080639 | 7 | 255 | 1.6 | 3.2 | 0.00 | 0.03 | 0.03 | 91 | 1013.2 |
| 20260508080137 | 7 | 271 | 0.0 | 3.2 | 0.00 | 0.03 | 0.03 | 92 | 1013.1 |
| 20260508075633 | 6 | 245 | 1.6 | 1.6 | 0.00 | 0.03 | 0.03 | 93 | 1013.0 |
| 20260508075130 | 6 | 275 | 0.0 | 1.6 | 0.00 | 0.03 | 0.03 | 92 | 1012.9 |
| 20260508074628 | 7 | 289 | 0.0 | 1.6 | 0.00 | 0.03 | 0.03 | 92 | 1013.3 |
| 20260508074125 | 7 | 277 | 1.6 | 1.6 | 0.00 | 0.03 | 0.03 | 91 | 1013.4 |
| 20260508073622 | 7 | 280 | 0.0 | 1.6 | 0.00 | 0.03 | 0.03 | 91 | 1013.2 |
| 20260508073120 | 7 | 269 | 1.6 | 1.6 | 0.00 | 0.03 | 0.03 | 91 | 1013.2 |
| 20260508072614 | 7 | 230 | 1.6 | 3.2 | 0.00 | 0.03 | 0.03 | 90 | 1013.3 |
| 20260508072112 | 7 | 338 | 0.0 | 1.6 | 0.00 | 0.03 | 0.03 | 90 | 1013.3 |
| 20260508071610 | 7 | 254 | 1.6 | 3.2 | 0.00 | 0.03 | 0.03 | 89 | 1013.2 |
| 20260508071108 | 7 | 246 | 4.8 | 8.0 | 0.00 | 0.03 | 0.03 | 89 | 1013.3 |
| 20260508070605 | 7 | 234 | 1.6 | 3.2 | 0.00 | 0.03 | 0.03 | 89 | 1013.5 |
| 20260508070104 | 7 | 249 | 1.6 | 1.6 | 0.00 | 0.03 | 0.03 | 89 | 1013.4 |
| 20260508065601 | 7 | 295 | 1.6 | 3.2 | 0.00 | 0.03 | 0.03 | 90 | 1013.5 |
| 20260508065058 | 7 | 321 | 1.6 | 1.6 | 0.00 | 0.03 | 0.03 | 90 | 1013.4 |
| 20260508064556 | 7 | 270 | 1.6 | 3.2 | 0.00 | 0.03 | 0.03 | 90 | 1013.5 |
| 20260508064054 | 8 | 266 | 1.6 | 4.8 | 0.00 | 0.03 | 0.03 | 90 | 1013.6 |
| 20260508063551 | 8 | 260 | 1.6 | 4.8 | 0.00 | 0.03 | 0.03 | 89 | 1013.6 |
| 20260508063049 | 8 | 237 | 1.6 | 9.7 | 0.13 | 0.03 | 0.03 | 89 | 1013.5 |
| 20260508062546 | 8 | 255 | 4.8 | 12.9 | 0.13 | 0.03 | 0.03 | 88 | 1013.5 |
| 20260508062043 | 8 | 194 | 4.8 | 8.0 | 0.00 | 0.00 | 0.00 | 85 | 1013.3 |
| 20260508061540 | 9 | 235 | 6.4 | 16.1 | 0.00 | 0.00 | 0.00 | 79 | 1013.6 |
| 20260508061037 | 10 | 187 | 8.0 | 11.3 | 0.00 | 0.00 | 0.00 | 74 | 1013.7 |
| 20260508060534 | 9 | 259 | 3.2 | 9.7 | 0.00 | 0.00 | 0.00 | 73 | 1013.6 |
| 20260508060031 | 9 | 218 | 4.8 | 8.0 | 0.00 | 0.00 | 0.00 | 72 | 1013.5 |
| 20260508055526 | 8 | 256 | 1.6 | 3.2 | 0.00 | 0.00 | 0.00 | 74 | 1013.6 |
| 20260508055024 | 8 | 272 | 1.6 | 1.6 | 0.00 | 0.00 | 0.00 | 75 | 1013.5 |
| 20260508054520 | 8 | 279 | 0.0 | 1.6 | 0.00 | 0.00 | 0.00 | 75 | 1013.6 |
| 20260508054017 | 8 | 261 | 1.6 | 1.6 | 0.00 | 0.00 | 0.00 | 76 | 1013.7 |
| 20260508053514 | 8 | 275 | 0.0 | 1.6 | 0.00 | 0.00 | 0.00 | 79 | 1013.9 |
| 20260508053012 | 7 | 263 | 0.0 | 1.6 | 0.00 | 0.00 | 0.00 | 81 | 1013.6 |
| 20260508052504 | 7 | 262 | 1.6 | 1.6 | 0.00 | 0.00 | 0.00 | 82 | 1013.9 |
| 20260508052000 | 7 | 273 | 0.0 | 1.6 | 0.00 | 0.00 | 0.00 | 83 | 1013.8 |
| 20260508051456 | 7 | 273 | 0.0 | 0.0 | 0.00 | 0.00 | 0.00 | 83 | 1013.9 |
| 20260508050952 | 7 | 273 | 0.0 | 1.6 | 0.00 | 0.00 | 0.00 | 82 | 1013.7 |
| 20260508050449 | 7 | 274 | 0.0 | 0.0 | 0.00 | 0.00 | 0.00 | 82 | 1013.7 |
| 20260508045945 | 7 | 275 | 0.0 | 1.6 | 0.00 | 0.00 | 0.00 | 81 | 1013.8 |
| 20260508045443 | 7 | 275 | 0.0 | 0.0 | 0.00 | 0.00 | 0.00 | 82 | 1014.1 |
| 20260508044940 | 7 | 277 | 0.0 | 0.0 | 0.00 | 0.00 | 0.00 | 82 | 1014.1 |
| 20260508044437 | 7 | 277 | 0.0 | 0.0 | 0.00 | 0.00 | 0.00 | 80 | 1014.0 |
| 20260508043932 | 7 | 277 | 0.0 | 0.0 | 0.00 | 0.00 | 0.00 | 81 | 1013.9 |
| 20260508043430 | 8 | 277 | 0.0 | 0.0 | 0.00 | 0.00 | 0.00 | 80 | 1013.9 |
| 20260508042926 | 8 | 277 | 0.0 | 0.0 | 0.00 | 0.00 | 0.00 | 79 | 1013.9 |
| 20260508042424 | 8 | 277 | 0.0 | 0.0 | 0.00 | 0.00 | 0.00 | 80 | 1013.8 |
| 20260508041921 | 8 | 258 | 1.6 | 1.6 | 0.00 | 0.00 | 0.00 | 78 | 1013.7 |
| 20260508041417 | 8 | 259 | 0.0 | 0.0 | 0.00 | 0.00 | 0.00 | 78 | 1013.9 |
| 20260508040914 | 8 | 258 | 0.0 | 1.6 | 0.00 | 0.00 | 0.00 | 78 | 1014.0 |
| 20260508040411 | 8 | 269 | 0.0 | 0.0 | 0.00 | 0.00 | 0.00 | 76 | 1014.0 |
| 20260508035909 | 8 | 265 | 1.6 | 1.6 | 0.00 | 0.00 | 0.00 | 76 | 1014.1 |
| 20260508035406 | 8 | 267 | 0.0 | 1.6 | 0.00 | 0.00 | 0.00 | 74 | 1014.1 |
| 20260508034902 | 8 | 263 | 0.0 | 1.6 | 0.00 | 0.00 | 0.00 | 74 | 1013.9 |
| 20260508034359 | 9 | 319 | 1.6 | 3.2 | 0.00 | 0.00 | 0.00 | 74 | 1014.1 |
| 20260508033850 | 9 | 268 | 0.0 | 1.6 | 0.00 | 0.00 | 0.00 | 72 | 1014.2 |
| 20260508033349 | 9 | 263 | 0.0 | 1.6 | 0.00 | 0.00 | 0.00 | 72 | 1014.3 |
| 20260508032846 | 9 | 267 | 0.0 | 1.6 | 0.00 | 0.00 | 0.00 | 71 | 1014.1 |
| 20260508032343 | 9 | 285 | 1.6 | 1.6 | 0.00 | 0.00 | 0.00 | 70 | 1014.4 |
| 20260508031840 | 10 | 272 | 0.0 | 4.8 | 0.00 | 0.00 | 0.00 | 70 | 1014.2 |
| 20260508031337 | 10 | 234 | 1.6 | 4.8 | 0.00 | 0.00 | 0.00 | 69 | 1014.2 |
| 20260508030833 | 10 | 285 | 1.6 | 4.8 | 0.00 | 0.00 | 0.00 | 67 | 1014.3 |
| 20260508030330 | 10 | 287 | 1.6 | 4.8 | 0.00 | 0.00 | 0.00 | 68 | 1014.1 |
| 20260508025826 | 10 | 242 | 1.6 | 3.2 | 0.00 | 0.00 | 0.00 | 68 | 1014.3 |
| 20260508025318 | 10 | 261 | 1.6 | 4.8 | 0.00 | 0.00 | 0.00 | 67 | 1014.6 |
| 20260508024815 | 10 | 217 | 4.8 | 8.0 | 0.00 | 0.00 | 0.00 | 66 | 1014.2 |
| 20260508024311 | 10 | 192 | 4.8 | 11.3 | 0.00 | 0.00 | 0.00 | 66 | 1014.5 |
| 20260508023808 | 10 | 320 | 4.8 | 9.7 | 0.00 | 0.00 | 0.00 | 62 | 1014.5 |
| 20260508023305 | 10 | 277 | 4.8 | 8.0 | 0.00 | 0.00 | 0.00 | 62 | 1014.4 |
| 20260508022801 | 10 | 320 | 1.6 | 8.0 | 0.00 | 0.00 | 0.00 | 62 | 1014.3 |
| 20260508022257 | 10 | 215 | 1.6 | 3.2 | 0.00 | 0.00 | 0.00 | 61 | 1014.2 |
| 20260508021755 | 10 | 155 | 3.2 | 3.2 | 0.00 | 0.00 | 0.00 | 61 | 1014.2 |
| 20260508021250 | 10 | 262 | 0.0 | 0.0 | 0.00 | 0.00 | 0.00 | 61 | 1014.2 |
| 20260508020747 | 10 | 272 | 0.0 | 1.6 | 0.00 | 0.00 | 0.00 | 60 | 1014.1 |
| 20260508020245 | 10 | 241 | 6.4 | 9.7 | 0.00 | 0.00 | 0.00 | 59 | 1014.1 |
| 20260508015741 | 10 | 277 | 1.6 | 8.0 | 0.00 | 0.00 | 0.00 | 60 | 1014.1 |
| 20260508015239 | 10 | 260 | 1.6 | 1.6 | 0.00 | 0.00 | 0.00 | 62 | 1014.1 |
| 20260508014735 | 9 | 223 | 3.2 | 4.8 | 0.00 | 0.00 | 0.00 | 63 | 1013.9 |
| 20260508014232 | 9 | 203 | 3.2 | 4.8 | 0.00 | 0.00 | 0.00 | 73 | 1013.9 |
| 20260508013728 | 8 | 266 | 0.0 | 1.6 | 0.00 | 0.00 | 0.00 | 72 | 1013.8 |
| 20260508013225 | 8 | 290 | 0.0 | 0.0 | 0.00 | 0.00 | 0.00 | 75 | 1013.9 |
| 20260508012722 | 8 | 290 | 0.0 | 0.0 | 0.00 | 0.00 | 0.00 | 76 | 1013.6 |
| 20260508012219 | 8 | 291 | 0.0 | 0.0 | 0.00 | 0.00 | 0.00 | 75 | 1013.6 |
| 20260508011717 | 8 | 290 | 0.0 | 0.0 | 0.00 | 0.00 | 0.00 | 74 | 1013.6 |
| 20260508011214 | 8 | 290 | 0.0 | 1.6 | 0.00 | 0.00 | 0.00 | 73 | 1013.5 |
| 20260508010711 | 8 | 291 | 0.0 | 1.6 | 0.00 | 0.00 | 0.00 | 73 | 1013.5 |
| 20260508010209 | 8 | 291 | 1.6 | 1.6 | 0.00 | 0.00 | 0.00 | 73 | 1013.4 |
| 20260508005706 | 9 | 291 | 0.0 | 0.0 | 0.00 | 0.00 | 0.00 | 70 | 1013.6 |
| 20260508005203 | 9 | 291 | 0.0 | 0.0 | 0.00 | 0.00 | 0.00 | 68 | 1013.4 |
| 20260508004658 | 9 | 292 | 0.0 | 0.0 | 0.00 | 0.00 | 0.00 | 66 | 1013.3 |
| 20260508004154 | 9 | 292 | 0.0 | 0.0 | 0.00 | 0.00 | 0.00 | 65 | 1013.4 |
| 20260508003651 | 9 | 292 | 0.0 | 0.0 | 0.00 | 0.00 | 0.00 | 64 | 1013.3 |
| 20260508003149 | 10 | 292 | 0.0 | 0.0 | 0.00 | 0.00 | 0.00 | 62 | 1013.2 |
| 20260508002645 | 10 | 292 | 0.0 | 0.0 | 0.00 | 0.00 | 0.00 | 61 | 1013.3 |
| 20260508002143 | 10 | 292 | 0.0 | 0.0 | 0.00 | 0.00 | 0.00 | 60 | 1013.4 |
| 20260508001638 | 11 | 292 | 0.0 | 0.0 | 0.00 | 0.00 | 0.00 | 59 | 1013.1 |
| 20260508001134 | 11 | 292 | 0.0 | 0.0 | 0.00 | 0.00 | 0.00 | 58 | 1013.1 |
| 20260508000630 | 11 | 285 | 0.0 | 1.6 | 0.00 | 0.00 | 0.00 | 53 | 1013.2 |
| 20260508000128 | 11 | 266 | 0.0 | 0.0 | 0.00 | 0.00 | 0.00 | 56 | 1012.9 |
| 20260507235624 | 11 | 300 | 0.0 | 1.6 | 0.00 | 0.00 | 0.00 | 53 | 1013.0 |
| 20260507235122 | 11 | 288 | 1.6 | 3.2 | 0.00 | 0.00 | 0.00 | 53 | 1012.9 |
| 20260507234618 | 11 | 315 | 1.6 | 1.6 | 0.00 | 0.00 | 0.00 | 54 | 1013.2 |
| 20260507234115 | 11 | 305 | 1.6 | 3.2 | 0.00 | 0.00 | 0.00 | 52 | 1013.1 |
| 20260507233612 | 12 | 322 | 3.2 | 9.7 | 0.00 | 0.00 | 0.00 | 52 | 1013.1 |
| 20260507233110 | 12 | 358 | 6.4 | 8.0 | 0.00 | 0.00 | 0.00 | 51 | 1013.1 |
| 20260507232606 | 12 | 359 | 1.6 | 8.0 | 0.00 | 0.00 | 0.00 | 49 | 1013.0 |
| 20260507232104 | 12 | 313 | 1.6 | 3.2 | 0.00 | 0.00 | 0.00 | 49 | 1013.1 |
| 20260507231559 | 12 | 314 | 6.4 | 8.0 | 0.00 | 0.00 | 0.00 | 47 | 1013.0 |
| 20260507231057 | 12 | 336 | 4.8 | 4.8 | 0.00 | 0.00 | 0.00 | 47 | 1013.2 |
| 20260507230548 | 13 | 224 | 1.6 | 4.8 | 0.00 | 0.00 | 0.00 | 45 | 1013.2 |
| 20260507230044 | 13 | 346 | 4.8 | 11.3 | 0.00 | 0.00 | 0.00 | 46 | 1013.2 |
| 20260507225539 | 13 | 320 | 4.8 | 12.9 | 0.00 | 0.00 | 0.00 | 45 | 1013.1 |
| 20260507225036 | 13 | 322 | 0.0 | 11.3 | 0.00 | 0.00 | 0.00 | 45 | 1013.2 |
| 20260507224532 | 13 | 282 | 3.2 | 11.3 | 0.00 | 0.00 | 0.00 | 45 | 1013.2 |
| 20260507224028 | 14 | 272 | 1.6 | 8.0 | 0.00 | 0.00 | 0.00 | 44 | 1013.3 |
| 20260507223525 | 13 | 255 | 6.4 | 11.3 | 0.00 | 0.00 | 0.00 | 43 | 1013.4 |
| 20260507223022 | 13 | 278 | 3.2 | 3.2 | 0.00 | 0.00 | 0.00 | 44 | 1013.3 |
| 20260507222519 | 13 | 280 | 3.2 | 9.7 | 0.00 | 0.00 | 0.00 | 45 | 1013.3 |
| 20260507222015 | 13 | 346 | 6.4 | 14.5 | 0.00 | 0.00 | 0.00 | 44 | 1013.2 |
| 20260507221512 | 13 | 275 | 4.8 | 12.9 | 0.00 | 0.00 | 0.00 | 46 | 1013.2 |
| 20260507221009 | 13 | 5 | 6.4 | 9.7 | 0.00 | 0.00 | 0.00 | 42 | 1013.2 |
| 20260507220506 | 13 | 25 | 4.8 | 11.3 | 0.00 | 0.00 | 0.00 | 44 | 1013.3 |
| 20260507220003 | 14 | 324 | 1.6 | 4.8 | 0.00 | 0.00 | 0.00 | 46 | 1013.2 |
| 20260507215458 | 14 | 314 | 1.6 | 9.7 | 0.00 | 0.00 | 0.00 | 47 | 1013.5 |
| 20260507214956 | 14 | 17 | 3.2 | 8.0 | 0.00 | 0.00 | 0.00 | 46 | 1013.2 |
| 20260507214448 | 13 | 275 | 1.6 | 8.0 | 0.00 | 0.00 | 0.00 | 48 | 1013.1 |
| 20260507213944 | 13 | 311 | 4.8 | 12.9 | 0.00 | 0.00 | 0.00 | 46 | 1013.1 |
| 20260507213440 | 13 | 323 | 4.8 | 9.7 | 0.00 | 0.00 | 0.00 | 45 | 1013.3 |
| 20260507212938 | 13 | 12 | 6.4 | 16.1 | 0.00 | 0.00 | 0.00 | 44 | 1013.0 |
| 20260507212433 | 13 | 298 | 3.2 | 14.5 | 0.00 | 0.00 | 0.00 | 45 | 1012.9 |
| 20260507211931 | 13 | 9 | 4.8 | 20.9 | 0.00 | 0.00 | 0.00 | 44 | 1013.1 |
| 20260507211427 | 13 | 271 | 9.7 | 16.1 | 0.00 | 0.00 | 0.00 | 43 | 1012.9 |
| 20260507210923 | 14 | 225 | 3.2 | 11.3 | 0.00 | 0.00 | 0.00 | 45 | 1012.9 |
| 20260507210421 | 14 | 42 | 6.4 | 17.7 | 0.00 | 0.00 | 0.00 | 42 | 1012.8 |
| 20260507205917 | 13 | 120 | 4.8 | 9.7 | 0.00 | 0.00 | 0.00 | 44 | 1012.9 |
| 20260507205415 | 13 | 27 | 4.8 | 8.0 | 0.00 | 0.00 | 0.00 | 44 | 1012.9 |
| 20260507204910 | 13 | 343 | 4.8 | 8.0 | 0.00 | 0.00 | 0.00 | 45 | 1012.7 |
| 20260507204407 | 14 | 149 | 4.8 | 12.9 | 0.00 | 0.00 | 0.00 | 46 | 1012.8 |
| 20260507203905 | 14 | 242 | 4.8 | 11.3 | 0.00 | 0.00 | 0.00 | 43 | 1012.9 |
| 20260507203403 | 14 | 215 | 6.4 | 11.3 | 0.00 | 0.00 | 0.00 | 47 | 1012.7 |
| 20260507202858 | 13 | 220 | 4.8 | 8.0 | 0.00 | 0.00 | 0.00 | 50 | 1012.6 |
| 20260507202355 | 14 | 199 | 9.7 | 12.9 | 0.00 | 0.00 | 0.00 | 47 | 1012.7 |
| 20260507201850 | 15 | 289 | 1.6 | 8.0 | 0.00 | 0.00 | 0.00 | 47 | 1012.8 |
| 20260507201346 | 14 | 275 | 1.6 | 20.9 | 0.00 | 0.00 | 0.00 | 49 | 1012.7 |
| 20260507200842 | 13 | 280 | 14.5 | 16.1 | 0.00 | 0.00 | 0.00 | 46 | 1012.8 |
| 20260507200333 | 13 | 266 | 1.6 | 4.8 | 0.00 | 0.00 | 0.00 | 51 | 1012.9 |
| 20260507195829 | 12 | 259 | 3.2 | 9.7 | 0.00 | 0.00 | 0.00 | 49 | 1013.0 |
| 20260507195327 | 13 | 234 | 4.8 | 9.7 | 0.00 | 0.00 | 0.00 | 50 | 1012.9 |
| 20260507194824 | 13 | 289 | 4.8 | 14.5 | 0.00 | 0.00 | 0.00 | 49 | 1013.0 |
| 20260507194320 | 13 | 318 | 8.0 | 16.1 | 0.00 | 0.00 | 0.00 | 49 | 1012.8 |
| 20260507193817 | 13 | 316 | 4.8 | 8.0 | 0.00 | 0.00 | 0.00 | 50 | 1013.0 |
| 20260507193314 | 14 | 261 | 4.8 | 14.5 | 0.00 | 0.00 | 0.00 | 49 | 1013.1 |
| 20260507192809 | 13 | 20 | 3.2 | 14.5 | 0.00 | 0.00 | 0.00 | 51 | 1012.9 |
| 20260507192307 | 14 | 354 | 3.2 | 9.7 | 0.00 | 0.00 | 0.00 | 50 | 1013.0 |
| 20260507191803 | 13 | 269 | 1.6 | 8.0 | 0.00 | 0.00 | 0.00 | 53 | 1013.2 |
| 20260507191259 | 13 | 248 | 3.2 | 14.5 | 0.00 | 0.00 | 0.00 | 54 | 1013.0 |
| 20260507190756 | 13 | 221 | 9.7 | 16.1 | 0.00 | 0.00 | 0.00 | 51 | 1013.1 |
| 20260507190255 | 13 | 62 | 4.8 | 12.9 | 0.00 | 0.00 | 0.00 | 53 | 1013.1 |
| 20260507185753 | 13 | 36 | 4.8 | 9.7 | 0.00 | 0.00 | 0.00 | 53 | 1013.1 |
| 20260507185249 | 13 | 34 | 8.0 | 11.3 | 0.00 | 0.00 | 0.00 | 54 | 1013.3 |
| 20260507184747 | 13 | 209 | 1.6 | 4.8 | 0.00 | 0.00 | 0.00 | 54 | 1012.9 |
| 20260507184245 | 13 | 221 | 6.4 | 14.5 | 0.00 | 0.00 | 0.00 | 52 | 1013.1 |
| 20260507183741 | 14 | 191 | 4.8 | 9.7 | 0.00 | 0.00 | 0.00 | 48 | 1013.3 |
| 20260507183238 | 13 | 160 | 4.8 | 11.3 | 0.00 | 0.00 | 0.00 | 50 | 1013.1 |
| 20260507182736 | 13 | 236 | 9.7 | 24.1 | 0.00 | 0.00 | 0.00 | 50 | 1013.1 |
| 20260507182230 | 13 | 252 | 4.8 | 9.7 | 0.00 | 0.00 | 0.00 | 56 | 1013.1 |
| 20260507181728 | 13 | 89 | 3.2 | 9.7 | 0.00 | 0.00 | 0.00 | 49 | 1013.3 |
| 20260507181224 | 13 | 280 | 3.2 | 8.0 | 0.00 | 0.00 | 0.00 | 52 | 1013.4 |
| 20260507180720 | 12 | 191 | 8.0 | 12.9 | 0.00 | 0.00 | 0.00 | 50 | 1013.4 |
| 20260507180217 | 12 | 175 | 4.8 | 9.7 | 0.00 | 0.00 | 0.00 | 52 | 1013.5 |
| 20260507175713 | 13 | 262 | 4.8 | 17.7 | 0.00 | 0.00 | 0.00 | 51 | 1013.5 |
| 20260507175210 | 12 | 300 | 1.6 | 4.8 | 0.00 | 0.00 | 0.00 | 54 | 1013.5 |
| 20260507174708 | 12 | 267 | 1.6 | 3.2 | 0.00 | 0.00 | 0.00 | 55 | 1013.5 |
| 20260507174205 | 12 | 305 | 4.8 | 11.3 | 0.00 | 0.00 | 0.00 | 57 | 1013.5 |
| 20260507173702 | 12 | 316 | 6.4 | 9.7 | 0.00 | 0.00 | 0.00 | 52 | 1013.4 |
| 20260507173159 | 12 | 296 | 4.8 | 8.0 | 0.00 | 0.00 | 0.00 | 53 | 1013.5 |
| 20260507172656 | 13 | 289 | 4.8 | 9.7 | 0.00 | 0.00 | 0.00 | 53 | 1013.6 |
| 20260507172153 | 12 | 326 | 1.6 | 8.0 | 0.00 | 0.00 | 0.00 | 53 | 1013.5 |
| 20260507171652 | 13 | 206 | 4.8 | 4.8 | 0.00 | 0.00 | 0.00 | 55 | 1013.6 |
| 20260507171150 | 12 | 316 | 8.0 | 11.3 | 0.00 | 0.00 | 0.00 | 52 | 1013.5 |
| 20260507170647 | 12 | 297 | 3.2 | 12.9 | 0.00 | 0.00 | 0.00 | 53 | 1013.7 |
| 20260507170144 | 13 | 90 | 3.2 | 8.0 | 0.00 | 0.00 | 0.00 | 51 | 1013.7 |
| 20260507165640 | 13 | 217 | 4.8 | 9.7 | 0.00 | 0.00 | 0.00 | 53 | 1013.8 |
| 20260507165136 | 13 | 275 | 6.4 | 12.9 | 0.00 | 0.00 | 0.00 | 51 | 1013.7 |
| 20260507164632 | 12 | 268 | 1.6 | 4.8 | 0.00 | 0.00 | 0.00 | 54 | 1013.7 |
| 20260507164130 | 12 | 330 | 4.8 | 4.8 | 0.00 | 0.00 | 0.00 | 54 | 1013.6 |
| 20260507163627 | 12 | 337 | 3.2 | 8.0 | 0.00 | 0.00 | 0.00 | 52 | 1013.6 |
| 20260507163125 | 13 | 166 | 3.2 | 4.8 | 0.00 | 0.00 | 0.00 | 50 | 1013.8 |
| 20260507162620 | 13 | 286 | 6.4 | 8.0 | 0.00 | 0.00 | 0.00 | 49 | 1013.7 |
| 20260507162117 | 13 | 252 | 4.8 | 4.8 | 0.00 | 0.00 | 0.00 | 53 | 1013.4 |
| 20260507161613 | 12 | 246 | 3.2 | 3.2 | 0.00 | 0.00 | 0.00 | 53 | 1013.7 |
| 20260507161110 | 12 | 53 | 4.8 | 9.7 | 0.00 | 0.00 | 0.00 | 52 | 1013.8 |
| 20260507160606 | 13 | 264 | 1.6 | 8.0 | 0.00 | 0.00 | 0.00 | 57 | 1013.6 |
| 20260507155558 | 13 | 201 | 3.2 | 22.5 | 0.00 | 0.00 | 0.00 | 58 | 1013.9 |
| 20260507155055 | 12 | 308 | 4.8 | 9.7 | 0.00 | 0.00 | 0.00 | 56 | 1013.8 |
| 20260507154552 | 12 | 325 | 4.8 | 9.7 | 0.00 | 0.00 | 0.00 | 54 | 1013.7 |
| 20260507154049 | 11 | 9 | 3.2 | 9.7 | 0.00 | 0.00 | 0.00 | 58 | 1014.0 |
| 20260507153546 | 11 | 327 | 1.6 | 9.7 | 0.00 | 0.00 | 0.00 | 57 | 1013.7 |
| 20260507153042 | 11 | 114 | 4.8 | 8.0 | 0.00 | 0.00 | 0.00 | 61 | 1013.8 |
| 20260507152538 | 11 | 358 | 3.2 | 4.8 | 0.00 | 0.00 | 0.00 | 62 | 1013.7 |
| 20260507152034 | 11 | 318 | 4.8 | 4.8 | 0.00 | 0.00 | 0.00 | 62 | 1013.7 |
| 20260507151530 | 12 | 203 | 3.2 | 11.3 | 0.00 | 0.00 | 0.00 | 62 | 1013.7 |
| 20260507151028 | 11 | 298 | 1.6 | 8.0 | 0.00 | 0.00 | 0.00 | 66 | 1013.7 |
| 20260507150525 | 11 | 315 | 1.6 | 4.8 | 0.00 | 0.00 | 0.00 | 66 | 1013.7 |
| 20260507150021 | 12 | 204 | 4.8 | 9.7 | 0.00 | 0.00 | 0.00 | 68 | 1013.7 |
| 20260507145516 | 11 | 141 | 3.2 | 4.8 | 0.00 | 0.00 | 0.00 | 67 | 1013.9 |
| 20260507145015 | 11 | 282 | 3.2 | 9.7 | 0.00 | 0.00 | 0.00 | 68 | 1013.9 |
| 20260507144511 | 11 | 315 | 0.0 | 4.8 | 0.00 | 0.00 | 0.00 | 68 | 1014.0 |
| 20260507144008 | 11 | 239 | 3.2 | 8.0 | 0.00 | 0.00 | 0.00 | 68 | 1014.0 |
| 20260507143505 | 10 | 260 | 3.2 | 4.8 | 0.00 | 0.00 | 0.00 | 68 | 1013.8 |
| 20260507143001 | 10 | 309 | 3.2 | 4.8 | 0.00 | 0.00 | 0.00 | 71 | 1013.7 |
| 20260507142452 | 10 | 320 | 1.6 | 4.8 | 0.00 | 0.00 | 0.00 | 70 | 1013.6 |
| 20260507141949 | 10 | 225 | 3.2 | 9.7 | 0.00 | 0.00 | 0.00 | 73 | 1013.8 |
| 20260507141444 | 10 | 255 | 1.6 | 1.6 | 0.00 | 0.00 | 0.00 | 74 | 1013.9 |
| 20260507140936 | 10 | 253 | 1.6 | 8.0 | 0.00 | 0.00 | 0.00 | 73 | 1013.8 |
| 20260507140433 | 10 | 195 | 3.2 | 4.8 | 0.00 | 0.00 | 0.00 | 72 | 1014.1 |
| 20260507135930 | 10 | 259 | 1.6 | 8.0 | 0.00 | 0.00 | 0.00 | 73 | 1013.9 |
| 20260507135427 | 9 | 234 | 3.2 | 3.2 | 0.00 | 0.00 | 0.00 | 75 | 1013.9 |
| 20260507134924 | 9 | 308 | 1.6 | 8.0 | 0.00 | 0.00 | 0.00 | 77 | 1014.0 |
| 20260507134421 | 8 | 324 | 4.8 | 9.7 | 0.00 | 0.00 | 0.00 | 76 | 1014.1 |
| 20260507133917 | 8 | 216 | 1.6 | 4.8 | 0.00 | 0.00 | 0.00 | 75 | 1014.0 |
| 20260507133412 | 8 | 338 | 4.8 | 8.0 | 0.00 | 0.00 | 0.00 | 76 | 1014.0 |
| 20260507132911 | 8 | 230 | 1.6 | 4.8 | 0.00 | 0.00 | 0.00 | 79 | 1014.1 |
| 20260507132407 | 8 | 318 | 3.2 | 11.3 | 0.00 | 0.00 | 0.00 | 78 | 1014.1 |
| 20260507131905 | 8 | 231 | 3.2 | 4.8 | 0.00 | 0.00 | 0.00 | 80 | 1014.3 |
| 20260507131401 | 8 | 302 | 1.6 | 3.2 | 0.00 | 0.00 | 0.00 | 80 | 1014.2 |
| 20260507130858 | 7 | 282 | 1.6 | 3.2 | 0.00 | 0.00 | 0.00 | 82 | 1014.2 |
| 20260507130354 | 7 | 258 | 3.2 | 8.0 | 0.00 | 0.00 | 0.00 | 81 | 1014.3 |